Location: Emerald Isle
(34.6779°N, 76.9508°W)
Time: 09:02:23
(UTC-04:00)

ISS - Visible Passes

Search period start: 26 April 2018 00:00
Search period end: 06 May 2018 00:00
Orbit: 403 x 406 km, 51.6° (Epoch: 26 April)

Date Brightness Start Highest point End Pass type
(mag) Time Alt. Az. Time Alt. Az. Time Alt. Az.
27 Apr -0.8 05:46:45 10° SE 05:47:43 11° SE 05:48:40 10° ESE visible
29 Apr -2.2 05:36:28 10° SSW 05:39:20 30° SE 05:42:15 10° ENE visible
30 Apr -1.3 04:45:42 11° SSE 04:47:13 14° SE 04:49:04 10° E visible
01 May -3.9 05:28:24 14° SW 05:31:03 89° WNW 05:34:20 10° NE visible
02 May -3.0 04:38:19 36° SSE 04:38:48 39° SE 04:41:53 10° ENE visible
03 May -1.0 03:48:08 14° E 03:48:08 14° E 03:48:57 10° E visible
03 May -2.7 05:20:47 16° W 05:22:54 32° NW 05:25:53 10° NNE visible
04 May -3.8 04:30:31 67° NW 04:30:31 67° NW 04:33:44 10° NE visible
05 May -1.2 03:40:09 20° ENE 03:40:09 20° ENE 03:41:21 10° ENE visible
05 May -1.5 05:12:48 10° WNW 05:14:50 16° NNW 05:16:57 10° N visible
